When you browse on this site, cookies collect data to enhance your experience and personalize the content and advertising you see.
Visit our Privacy Policy to learn more. By continuing to use the site, you agree to this use of cookies and data.
  • In Spain
  • List of Countries
  • For 7 days
  • Water Temperature
  • Weather Map
  • Weather Widgets
  • user-avatar
    Login

    Hourly Weather Bukavu

    Today, 23 October, Wednesday

    Time Temperature Precipitation Wind Pressure Humidity
    00:00 +19°C° 0.2 mm 0 mps 687 mmHg 97%
    01:00 +19°C° 0.2 mm 0 mps 687 mmHg 98%
    02:00 +19°C° 0.2 mm 0 mps 686 mmHg 98%
    03:00 +19°C° 1.1 mm 0 mps 687 mmHg 98%
    04:00 +18°C° 1.1 mm 0 mps 687 mmHg 99%
    05:00 +18°C° 1.1 mm 0 mps 687 mmHg 99%
    06:00 +19°C° 0.2 mm 0 mps 688 mmHg 98%
    07:00 +19°C° 0.2 mm 0 mps 688 mmHg 98%
    08:00 +20°C° 0.2 mm 0 mps 689 mmHg 97%
    09:00 +22°C° 0.2 mm 0 mps 689 mmHg 88%
    10:00 +26°C° 0.2 mm 1 mps 689 mmHg 78%
    11:00 +28°C° 0.2 mm 1 mps 689 mmHg 68%
    12:00 +29°C° 0.2 mm 1 mps 688 mmHg 64%
    13:00 +30°C° 0.2 mm 1 mps 688 mmHg 61%
    14:00 +31°C° 0.2 mm 1 mps 687 mmHg 57%
    15:00 +29°C° 0.8 mm 1 mps 686 mmHg 67%
    16:00 +27°C° 0.8 mm 1 mps 686 mmHg 77%
    17:00 +25°C° 0.8 mm 1 mps 685 mmHg 87%
    18:00 +25°C° 0.1 mm 1 mps 686 mmHg 89%
    19:00 +24°C° 0.1 mm 1 mps 686 mmHg 91%
    20:00 +23°C° 0.1 mm 1 mps 686 mmHg 94%
    21:00 +23°C° 0 mm 1 mps 687 mmHg 94%
    22:00 +20°C° 0 mm 0 mps 687 mmHg 94%
    23:00 +20°C° 0 mm 0 mps 687 mmHg 95%

    Tomorrow, 24 October, Thursday

    Time Temperature Precipitation Wind Pressure Humidity
    00:00 +20°C° 0 mm 0 mps 687 mmHg 96%
    01:00 +19°C° 0 mm 0 mps 686 mmHg 96%
    02:00 +19°C° 0 mm 0 mps 686 mmHg 97%
    03:00 +19°C° 0 mm 0 mps 686 mmHg 97%
    04:00 +19°C° 0 mm 0 mps 687 mmHg 97%
    05:00 +19°C° 0 mm 0 mps 687 mmHg 96%
    06:00 +20°C° 0 mm 0 mps 688 mmHg 94%
    07:00 +20°C° 0 mm 0 mps 688 mmHg 92%
    08:00 +23°C° 0 mm 1 mps 689 mmHg 90%
    09:00 +24°C° 0 mm 1 mps 689 mmHg 86%
    10:00 +25°C° 0 mm 1 mps 689 mmHg 81%
    11:00 +25°C° 0 mm 1 mps 688 mmHg 77%
    12:00 +27°C° 0 mm 1 mps 687 mmHg 69%
    13:00 +29°C° 0 mm 1 mps 687 mmHg 60%
    14:00 +31°C° 0 mm 1 mps 686 mmHg 52%
    15:00 +30°C° 0 mm 1 mps 686 mmHg 58%
    16:00 +29°C° 0 mm 1 mps 686 mmHg 64%
    17:00 +26°C° 0 mm 0 mps 685 mmHg 69%
    18:00 +27°C° 0.4 mm 1 mps 686 mmHg 76%
    19:00 +25°C° 0.4 mm 1 mps 686 mmHg 83%
    20:00 +23°C° 0.4 mm 1 mps 686 mmHg 89%
    21:00 +23°C° 0.7 mm 1 mps 686 mmHg 92%
    22:00 +20°C° 0.7 mm 0 mps 686 mmHg 94%
    23:00 +20°C° 0.7 mm 0 mps 686 mmHg 96%

    Day after tomorrow, 25 October, Friday

    Time Temperature Precipitation Wind Pressure Humidity
    00:00 +19°C° 0.1 mm 0 mps 686 mmHg 97%
    01:00 +19°C° 0.1 mm 0 mps 686 mmHg 97%
    02:00 +19°C° 0.1 mm 0 mps 686 mmHg 98%
    03:00 +19°C° 0.3 mm 0 mps 686 mmHg 98%
    04:00 +19°C° 0.3 mm 0 mps 686 mmHg 98%
    05:00 +18°C° 0.3 mm 0 mps 686 mmHg 98%
    06:00 +20°C° 0 mm 0 mps 687 mmHg 94%
    07:00 +21°C° 0 mm 0 mps 688 mmHg 89%
    08:00 +22°C° 0 mm 0 mps 688 mmHg 85%
    09:00 +27°C° 0.3 mm 1 mps 688 mmHg 76%
    10:00 +29°C° 0.3 mm 1 mps 688 mmHg 68%
    11:00 +31°C° 0.3 mm 1 mps 688 mmHg 59%
    12:00 +31°C° 0.5 mm 1 mps 687 mmHg 59%
    13:00 +31°C° 0.5 mm 1 mps 686 mmHg 59%
    14:00 +31°C° 0.5 mm 1 mps 686 mmHg 59%
    15:00 +29°C° 0.8 mm 1 mps 685 mmHg 70%
    16:00 +28°C° 0.8 mm 1 mps 685 mmHg 81%
    17:00 +24°C° 0.8 mm 0 mps 685 mmHg 91%
    18:00 +23°C° 0.1 mm 0 mps 685 mmHg 93%
    19:00 +22°C° 0.1 mm 0 mps 686 mmHg 94%
    20:00 +20°C° 0.1 mm 0 mps 686 mmHg 95%
    21:00 +20°C° 0.2 mm 0 mps 687 mmHg 96%
    22:00 +20°C° 0.2 mm 0 mps 687 mmHg 97%
    23:00 +19°C° 0.2 mm 0 mps 687 mmHg 98%

    26 October, Saturday

    Time Temperature Precipitation Wind Pressure Humidity
    00:00 +19°C° 0.8 mm 0 mps 687 mmHg 98%
    01:00 +19°C° 0.8 mm 0 mps 686 mmHg 98%
    02:00 +19°C° 0.8 mm 0 mps 686 mmHg 99%
    03:00 +19°C° 0.1 mm 0 mps 686 mmHg 99%
    04:00 +18°C° 0.1 mm 0 mps 686 mmHg 99%
    05:00 +18°C° 0.1 mm 0 mps 687 mmHg 99%
    06:00 +19°C° 0 mm 0 mps 687 mmHg 97%
    07:00 +21°C° 0 mm 0 mps 688 mmHg 95%
    08:00 +24°C° 0 mm 1 mps 689 mmHg 94%
    09:00 +25°C° 1 mm 1 mps 689 mmHg 91%
    10:00 +26°C° 1 mm 1 mps 688 mmHg 89%
    11:00 +27°C° 1 mm 1 mps 688 mmHg 87%
    12:00 +27°C° 1.2 mm 1 mps 687 mmHg 86%
    13:00 +28°C° 1.2 mm 1 mps 686 mmHg 85%
    14:00 +28°C° 1.2 mm 1 mps 686 mmHg 84%
    15:00 +25°C° 1.4 mm 0 mps 685 mmHg 88%
    16:00 +24°C° 1.4 mm 0 mps 685 mmHg 92%
    17:00 +23°C° 1.4 mm 0 mps 685 mmHg 96%
    18:00 +22°C° 0.9 mm 0 mps 685 mmHg 97%
    19:00 +21°C° 0.9 mm 0 mps 686 mmHg 97%
    20:00 +23°C° 0.9 mm 1 mps 686 mmHg 98%
    21:00 +20°C° 0.4 mm 0 mps 686 mmHg 98%
    22:00 +20°C° 0.4 mm 0 mps 687 mmHg 98%
    23:00 +20°C° 0.4 mm 0 mps 687 mmHg 98%

    27 October, Sunday

    Time Temperature Precipitation Wind Pressure Humidity
    00:00 +19°C° 1.1 mm 0 mps 686 mmHg 98%
    01:00 +19°C° 1.1 mm 0 mps 686 mmHg 98%
    02:00 +19°C° 1.1 mm 0 mps 686 mmHg 99%
    03:00 +19°C° 1.3 mm 0 mps 686 mmHg 99%
    04:00 +19°C° 1.3 mm 0 mps 686 mmHg 99%
    05:00 +19°C° 1.3 mm 0 mps 686 mmHg 99%
    06:00 +19°C° 0.8 mm 0 mps 687 mmHg 98%
    07:00 +20°C° 0.8 mm 0 mps 688 mmHg 97%
    08:00 +23°C° 0.8 mm 1 mps 688 mmHg 97%
    09:00 +23°C° 0.4 mm 1 mps 688 mmHg 95%
    10:00 +24°C° 0.4 mm 1 mps 688 mmHg 93%
    11:00 +24°C° 0.4 mm 1 mps 688 mmHg 90%
    12:00 +25°C° 1.7 mm 1 mps 687 mmHg 91%
    13:00 +25°C° 1.7 mm 1 mps 686 mmHg 92%
    14:00 +25°C° 1.7 mm 2 mps 686 mmHg 93%
    15:00 +25°C° 0.8 mm 1 mps 686 mmHg 93%
    16:00 +25°C° 0.8 mm 1 mps 686 mmHg 93%
    17:00 +25°C° 0.8 mm 1 mps 686 mmHg 92%
    18:00 +24°C° 1.1 mm 1 mps 686 mmHg 94%
    19:00 +23°C° 1.1 mm 1 mps 686 mmHg 97%
    20:00 +22°C° 1.1 mm 1 mps 687 mmHg 99%
    21:00 +21°C° 0.2 mm 1 mps 687 mmHg 99%
    22:00 +21°C° 0.2 mm 1 mps 687 mmHg 99%
    23:00 +21°C° 0.2 mm 1 mps 687 mmHg 99%

    28 October, Monday

    Time Temperature Precipitation Wind Pressure Humidity
    00:00 +21°C° 0 mm 1 mps 687 mmHg 99%
    01:00 +21°C° 0 mm 1 mps 686 mmHg 99%
    02:00 +21°C° 0 mm 1 mps 686 mmHg 99%
    03:00 +21°C° 0.3 mm 1 mps 686 mmHg 99%
    04:00 +21°C° 0.3 mm 1 mps 686 mmHg 99%
    05:00 +21°C° 0.3 mm 1 mps 687 mmHg 99%
    06:00 +21°C° 0.1 mm 1 mps 687 mmHg 98%
    07:00 +22°C° 0.1 mm 1 mps 688 mmHg 98%
    08:00 +22°C° 0.1 mm 1 mps 689 mmHg 97%
    09:00 +23°C° 0.8 mm 1 mps 688 mmHg 96%
    10:00 +24°C° 0.8 mm 1 mps 688 mmHg 95%
    11:00 +25°C° 0.8 mm 1 mps 688 mmHg 95%
    12:00 +25°C° 1.8 mm 1 mps 687 mmHg 94%
    13:00 +25°C° 1.8 mm 1 mps 686 mmHg 93%
    14:00 +24°C° 1.8 mm 0 mps 685 mmHg 93%
    15:00 +24°C° 0.8 mm 0 mps 685 mmHg 93%
    16:00 +23°C° 0.8 mm 0 mps 685 mmHg 94%
    17:00 +23°C° 0.8 mm 0 mps 685 mmHg 95%
    18:00 +22°C° 1.1 mm 0 mps 686 mmHg 96%
    19:00 +20°C° 1.1 mm 0 mps 686 mmHg 97%
    20:00 +19°C° 1.1 mm 0 mps 686 mmHg 98%
    21:00 +19°C° 0.4 mm 0 mps 687 mmHg 98%
    22:00 +19°C° 0.4 mm 0 mps 687 mmHg 98%
    23:00 +18°C° 0.4 mm 0 mps 687 mmHg 99%

    29 October, Tuesday

    Time Temperature Precipitation Wind Pressure Humidity
    00:00 +18°C° 0.6 mm 0 mps 687 mmHg 99%
    01:00 +18°C° 0.6 mm 0 mps 686 mmHg 99%
    02:00 +20°C° 0.6 mm 1 mps 686 mmHg 99%
    03:00 +20°C° 1.1 mm 1 mps 686 mmHg 99%
    04:00 +20°C° 1.1 mm 1 mps 687 mmHg 99%
    05:00 +18°C° 1.1 mm 0 mps 687 mmHg 99%
    06:00 +21°C° 0.6 mm 1 mps 687 mmHg 99%
    07:00 +21°C° 0.6 mm 1 mps 688 mmHg 99%
    08:00 +21°C° 0.6 mm 1 mps 688 mmHg 99%
    09:00 +22°C° 0.7 mm 1 mps 688 mmHg 98%
    10:00 +22°C° 0.7 mm 1 mps 688 mmHg 97%
    11:00 +23°C° 0.7 mm 1 mps 688 mmHg 97%
    12:00 +24°C° 0.8 mm 1 mps 687 mmHg 91%
    13:00 +25°C° 0.8 mm 1 mps 687 mmHg 85%
    14:00 +26°C° 0.8 mm 1 mps 686 mmHg 79%
    15:00 +25°C° 0.6 mm 1 mps 686 mmHg 84%
    16:00 +25°C° 0.6 mm 1 mps 686 mmHg 88%
    17:00 +24°C° 0.6 mm 1 mps 686 mmHg 93%
    18:00 +21°C° 1.6 mm 0 mps 686 mmHg 94%
    19:00 +20°C° 1.6 mm 0 mps 687 mmHg 96%
    20:00 +20°C° 1.6 mm 0 mps 687 mmHg 97%
    21:00 +19°C° 0.9 mm 0 mps 687 mmHg 98%
    22:00 +19°C° 0.9 mm 0 mps 687 mmHg 98%
    23:00 +19°C° 0.9 mm 0 mps 688 mmHg 98%
    Show more